| time (UTC) | temp F | wind direction | speed MPH | gust MPH | rain 1hr in | rain 24hr in | rain mn in | humidity % | barometer mb |
| 20260503202907 | 51 | 300 | 10.0 | 20.0 | 0.00 | 0.00 | 0.00 | 55 | 1011.6 |
| 20260503201906 | 51 | 288 | 12.0 | 20.0 | 0.00 | 0.00 | 0.00 | 55 | 1011.7 |
| 20260503195906 | 51 | 300 | 15.0 | 17.0 | 0.00 | 0.00 | 0.00 | 57 | 1012.0 |
| 20260503193906 | 49 | 17 | 3.0 | 13.0 | 0.00 | 0.00 | 0.00 | 57 | 1012.3 |
| 20260503192906 | 49 | 300 | 7.0 | 16.0 | 0.00 | 0.00 | 0.00 | 56 | 1012.4 |
| 20260503191836 | 50 | 273 | 3.0 | 14.0 | 0.00 | 0.00 | 0.00 | 54 | 1012.3 |
| 20260503190906 | 50 | 221 | 6.0 | 16.0 | 0.00 | 0.00 | 0.00 | 58 | 1012.3 |
| 20260503185905 | 50 | 286 | 3.0 | 13.0 | 0.00 | 0.00 | 0.00 | 53 | 1012.5 |
| 20260503184905 | 49 | 236 | 5.0 | 19.0 | 0.00 | 0.00 | 0.00 | 53 | 1012.5 |
| 20260503183905 | 50 | 262 | 7.0 | 23.0 | 0.00 | 0.00 | 0.00 | 54 | 1012.8 |
| 20260503182905 | 50 | 250 | 5.0 | 17.0 | 0.00 | 0.00 | 0.00 | 51 | 1012.7 |
| 20260503181905 | 50 | 227 | 9.0 | 15.0 | 0.00 | 0.00 | 0.00 | 50 | 1012.7 |
| 20260503180904 | 49 | 236 | 15.0 | 19.0 | 0.00 | 0.00 | 0.00 | 52 | 1012.9 |
| 20260503175905 | 48 | 267 | 11.0 | 16.0 | 0.00 | 0.00 | 0.00 | 55 | 1013.0 |
| 20260503172904 | 49 | 305 | 11.0 | 14.0 | 0.00 | 0.00 | 0.00 | 52 | 1013.2 |
| 20260503171904 | 48 | 311 | 9.0 | 17.0 | 0.00 | 0.00 | 0.00 | 55 | 1013.3 |
| 20260503170904 | 47 | 324 | 6.0 | 16.0 | 0.00 | 0.00 | 0.00 | 53 | 1013.3 |
| 20260503150901 | 44 | 310 | 8.0 | 17.0 | 0.00 | 0.00 | 0.00 | 58 | 1014.3 |
| 20260503130900 | 40 | 216 | 3.0 | 12.0 | 0.00 | 0.00 | 0.00 | 74 | 1014.3 |
| 20260503072854 | 37 | 281 | 4.0 | 10.0 | 0.00 | 0.00 | 0.00 | 85 | 1013.8 |
| 20260503071853 | 37 | 296 | 4.0 | 10.0 | 0.00 | 0.00 | 0.00 | 85 | 1014.0 |
| 20260503070854 | 37 | 305 | 2.0 | 8.0 | 0.00 | 0.00 | 0.00 | 85 | 1013.9 |
| 20260503054852 | 37 | 309 | 2.0 | 5.0 | 0.00 | 0.00 | 0.00 | 86 | 1014.1 |
| 20260503053852 | 37 | 300 | 2.0 | 4.0 | 0.00 | 0.00 | 0.00 | 86 | 1014.1 |
| 20260503052852 | 37 | 355 | 0.0 | 4.0 | 0.00 | 0.00 | 0.00 | 86 | 1014.3 |
| 20260503050851 | 37 | 313 | 2.0 | 5.0 | 0.00 | 0.00 | 0.00 | 86 | 1014.5 |
| 20260503045851 | 37 | 277 | 2.0 | 4.0 | 0.00 | 0.00 | 0.00 | 87 | 1014.6 |
| 20260503043851 | 36 | 258 | 1.0 | 4.0 | 0.00 | 0.01 | 0.00 | 89 | 1014.6 |
| 20260503042851 | 36 | 281 | 1.0 | 4.0 | 0.00 | 0.01 | 0.00 | 91 | 1014.8 |
| 20260503041851 | 35 | 88 | 0.0 | 2.0 | 0.00 | 0.01 | 0.00 | 91 | 1014.7 |
| 20260503040851 | 35 | 30 | 0.0 | 0.0 | 0.00 | 0.01 | 0.00 | 90 | 1014.7 |
| 20260503035851 | 35 | 306 | 0.0 | 0.0 | 0.00 | 0.01 | 0.01 | 89 | 1014.8 |
| 20260503034850 | 35 | 306 | 0.0 | 0.0 | 0.00 | 0.01 | 0.01 | 88 | 1014.7 |
| 20260503033850 | 35 | 306 | 0.0 | 1.0 | 0.00 | 0.01 | 0.01 | 88 | 1014.7 |
| 20260503032850 | 35 | 306 | 0.0 | 2.0 | 0.00 | 0.02 | 0.01 | 88 | 1014.8 |
| 20260503030850 | 34 | 307 | 0.0 | 0.0 | 0.00 | 0.02 | 0.01 | 88 | 1014.8 |
| 20260503025850 | 34 | 307 | 0.0 | 0.0 | 0.00 | 0.03 | 0.01 | 87 | 1014.8 |
| 20260503024850 | 34 | 307 | 0.0 | 0.0 | 0.00 | 0.03 | 0.01 | 87 | 1014.9 |
| 20260503023849 | 34 | 307 | 0.0 | 1.0 | 0.00 | 0.03 | 0.01 | 87 | 1014.9 |
| 20260503022849 | 34 | 308 | 0.0 | 2.0 | 0.00 | 0.04 | 0.01 | 86 | 1015.0 |
| 20260503015848 | 35 | 300 | 2.0 | 2.0 | 0.00 | 0.06 | 0.01 | 83 | 1015.2 |
| 20260503012848 | 36 | 309 | 3.0 | 4.0 | 0.00 | 0.08 | 0.01 | 81 | 1014.9 |
| 20260503011847 | 37 | 17 | 0.0 | 1.0 | 0.00 | 0.09 | 0.01 | 80 | 1015.0 |
| 20260503010848 | 38 | 17 | 1.0 | 3.0 | 0.00 | 0.10 | 0.01 | 79 | 1015.0 |
| 20260503005847 | 38 | 17 | 0.0 | 4.0 | 0.00 | 0.11 | 0.01 | 78 | 1014.6 |
| 20260503004847 | 39 | 360 | 2.0 | 5.0 | 0.00 | 0.11 | 0.01 | 77 | 1014.7 |
| 20260503003847 | 39 | 343 | 4.0 | 10.0 | 0.00 | 0.12 | 0.01 | 76 | 1014.5 |
| 20260503002847 | 39 | 292 | 2.0 | 5.0 | 0.00 | 0.13 | 0.01 | 76 | 1014.6 |
| 20260503001847 | 39 | 301 | 4.0 | 11.0 | 0.00 | 0.15 | 0.01 | 75 | 1014.6 |
| 20260503000846 | 39 | 286 | 3.0 | 7.0 | 0.00 | 0.16 | 0.01 | 74 | 1014.7 |
| 20260502235847 | 40 | 238 | 1.0 | 10.0 | 0.00 | 0.17 | 0.01 | 73 | 1014.6 |
| 20260502234846 | 40 | 308 | 1.0 | 8.0 | 0.00 | 0.19 | 0.01 | 73 | 1014.5 |
| 20260502233846 | 40 | 313 | 5.0 | 11.0 | 0.00 | 0.20 | 0.01 | 73 | 1014.5 |
| 20260502231846 | 40 | 289 | 2.0 | 9.0 | 0.00 | 0.20 | 0.01 | 76 | 1014.3 |
| 20260502230846 | 41 | 310 | 7.0 | 10.0 | 0.00 | 0.20 | 0.01 | 76 | 1014.4 |
| 20260502225846 | 41 | 322 | 5.0 | 9.0 | 0.00 | 0.20 | 0.01 | 76 | 1014.5 |
| 20260502224845 | 41 | 327 | 2.0 | 9.0 | 0.00 | 0.20 | 0.01 | 76 | 1014.4 |
| 20260502223845 | 41 | 317 | 2.0 | 11.0 | 0.00 | 0.20 | 0.01 | 75 | 1014.4 |
| 20260502221844 | 41 | 313 | 8.0 | 13.0 | 0.00 | 0.20 | 0.01 | 72 | 1014.0 |
| 20260502220844 | 42 | 329 | 8.0 | 10.0 | 0.00 | 0.20 | 0.01 | 71 | 1014.0 |
| 20260502215844 | 42 | 310 | 10.0 | 10.0 | 0.00 | 0.20 | 0.01 | 70 | 1014.0 |
| 20260502214844 | 42 | 321 | 5.0 | 13.0 | 0.00 | 0.20 | 0.01 | 71 | 1014.1 |
| 20260502213844 | 42 | 360 | 3.0 | 11.0 | 0.00 | 0.20 | 0.01 | 72 | 1014.0 |
| 20260502212844 | 42 | 348 | 6.0 | 12.0 | 0.00 | 0.20 | 0.01 | 73 | 1013.9 |
| 20260502210843 | 42 | 322 | 6.0 | 12.0 | 0.00 | 0.20 | 0.01 | 72 | 1013.9 |
| 20260502205843 | 42 | 327 | 6.0 | 11.0 | 0.00 | 0.20 | 0.01 | 73 | 1013.9 |
| 20260502204843 | 42 | 324 | 6.0 | 9.0 | 0.00 | 0.20 | 0.01 | 72 | 1014.0 |
| 20260502203843 | 42 | 11 | 7.0 | 11.0 | 0.00 | 0.20 | 0.01 | 71 | 1014.0 |